User: anonymous   Login
Location: Unspecified
(0.0000°N, 0.0000°E)
Time: 09:18:57
(UTC+00:00)
Language:

PAYLOAD E - Orbit

View from above orbital plane
View from above orbital plane
View from above satellite
View from above satellite

Ground track
Ground track

The orbit data is extracted from the following two-line orbital elements,

1 27059U 01058E   17269.08121946  .00000004  00000-0 -37160-4 0  9999
2 27059  82.5384  92.8413 0000511 236.2246 123.8797 12.61479543725074
Epoch (UTC): 26 September 2017 01:56:57
Eccentricity: 0.0000511
inclination: 82.5384°
perigee height: 1416 km
apogee height: 1417 km
right ascension of ascending node: 92.8413°
argument of perigee: 236.2246°
revolutions per day: 12.61479543
mean anomaly at epoch: 123.8797°
orbit number at epoch: 72507

The dashed part of the orbit path shows where the satellite is in the earth's shadow,  

DLR